Simultaneous Nadir Overpasses (SNOs) Predictions

Prediction of SNOs between METOP-A and NOAA-19 Satellite Orbit:

Table of predicted SNOs for the next 14.0 days since TLE Epoch: 9/4/2021
Index Date (METOP-A) Time (METOP-A) Lat,Lon (METOP-A) SZA (METOP-A ) Date (NOAA-19) Time (NOAA-19) Lat,Lon (NOAA-19) SZA (NOAA-19 ) Distance(km) Time Diff (sec)
1 09/10/2021 22:15:40 80.59,-150.96 75.99 09/10/2021 22:14:28 80.60,-150.88 75.99 1.57 72
2 09/10/2021 23:06:21 -80.61, 16.49 103.99 09/10/2021 23:05:26 -80.61, 16.59 103.99 1.74 55
3 09/10/2021 23:57:01 80.61,-176.13 76.03 09/10/2021 23:56:28 80.60,-176.29 76.02 2.97 33
4 09/11/2021 00:47:42 -80.62, -8.67 103.95 09/11/2021 00:47:26 -80.61, -8.82 103.96 2.93 16
5 09/11/2021 01:38:22 80.62, 158.70 76.07 09/11/2021 01:38:27 80.62, 158.66 76.07 0.94 5
6 09/11/2021 02:29:03 -80.63, -33.84 103.91 09/11/2021 02:29:25 -80.63, -33.88 103.91 1.08 22
7 09/11/2021 03:19:43 80.64, 133.54 76.11 09/11/2021 03:20:26 80.64, 133.60 76.12 1.18 43



Historial Predications of SNOs between METOP-A and NOAA-19
